When you browse on this site, cookies collect data to enhance your experience and personalize the content and advertising you see.
Visit our Privacy Policy to learn more. By continuing to use the site, you agree to this use of cookies and data.
  • In Hungary
  • List of Countries
  • For 7 days
  • Water Temperature
  • Satellite Maps
  • Weather Map
  • News
  • Weather Widgets
  • user-avatar
    Login

    Hourly Weather Lyubashevka

    Today, 22 April, Monday

    Time Temperature Precipitation Wind Pressure Humidity
    00:00 +9°C° 0 mm 1 mps 754 mmHg 51%
    01:00 +9°C° 0 mm 1 mps 754 mmHg 52%
    02:00 +7°C° 0 mm 0 mps 754 mmHg 53%
    03:00 +7°C° 0 mm 1 mps 754 mmHg 53%
    04:00 +7°C° 0 mm 1 mps 754 mmHg 53%
    05:00 +6°C° 0 mm 2 mps 754 mmHg 53%
    06:00 +8°C° 0 mm 2 mps 754 mmHg 50%
    07:00 +9°C° 0 mm 3 mps 755 mmHg 46%
    08:00 +11°C° 0 mm 3 mps 755 mmHg 42%
    09:00 +12°C° 0 mm 3 mps 755 mmHg 39%
    10:00 +13°C° 0 mm 4 mps 755 mmHg 35%
    11:00 +14°C° 0 mm 4 mps 755 mmHg 32%
    12:00 +14°C° 0 mm 4 mps 755 mmHg 32%
    13:00 +15°C° 0 mm 4 mps 755 mmHg 32%
    14:00 +15°C° 0 mm 4 mps 755 mmHg 33%
    15:00 +15°C° 0 mm 4 mps 755 mmHg 34%
    16:00 +16°C° 0 mm 3 mps 755 mmHg 35%
    17:00 +14°C° 0 mm 3 mps 755 mmHg 37%
    18:00 +13°C° 0 mm 3 mps 755 mmHg 41%
    19:00 +13°C° 0 mm 2 mps 755 mmHg 44%
    20:00 +12°C° 0 mm 2 mps 756 mmHg 48%
    21:00 +10°C° 0 mm 2 mps 756 mmHg 49%
    22:00 +11°C° 0 mm 1 mps 756 mmHg 49%
    23:00 +11°C° 0 mm 1 mps 757 mmHg 50%

    Tomorrow, 23 April, Tuesday

    Time Temperature Precipitation Wind Pressure Humidity
    00:00 +10°C° 0 mm 1 mps 757 mmHg 52%
    01:00 +9°C° 0 mm 1 mps 757 mmHg 53%
    02:00 +8°C° 0 mm 0 mps 757 mmHg 55%
    03:00 +8°C° 0 mm 1 mps 757 mmHg 56%
    04:00 +8°C° 0 mm 1 mps 757 mmHg 56%
    05:00 +7°C° 0 mm 1 mps 757 mmHg 57%
    06:00 +8°C° 0 mm 2 mps 758 mmHg 53%
    07:00 +10°C° 0 mm 2 mps 758 mmHg 49%
    08:00 +12°C° 0 mm 3 mps 758 mmHg 45%
    09:00 +13°C° 0 mm 3 mps 758 mmHg 41%
    10:00 +15°C° 0 mm 4 mps 759 mmHg 38%
    11:00 +16°C° 0 mm 5 mps 759 mmHg 34%
    12:00 +16°C° 0 mm 5 mps 758 mmHg 34%
    13:00 +17°C° 0 mm 4 mps 758 mmHg 34%
    14:00 +18°C° 0 mm 4 mps 758 mmHg 34%
    15:00 +17°C° 0 mm 4 mps 758 mmHg 35%
    16:00 +17°C° 0 mm 4 mps 758 mmHg 37%
    17:00 +15°C° 0 mm 4 mps 758 mmHg 38%
    18:00 +14°C° 0 mm 3 mps 758 mmHg 43%
    19:00 +12°C° 0 mm 3 mps 758 mmHg 47%
    20:00 +12°C° 0 mm 2 mps 758 mmHg 52%
    21:00 +10°C° 0 mm 2 mps 758 mmHg 53%
    22:00 +9°C° 0 mm 2 mps 758 mmHg 54%
    23:00 +9°C° 0 mm 2 mps 758 mmHg 54%

    Day after tomorrow, 24 April, Wednesday

    Time Temperature Precipitation Wind Pressure Humidity
    00:00 +8°C° 0 mm 2 mps 758 mmHg 54%
    01:00 +8°C° 0 mm 2 mps 758 mmHg 55%
    02:00 +7°C° 0 mm 2 mps 758 mmHg 55%
    03:00 +7°C° 0 mm 2 mps 758 mmHg 55%
    04:00 +7°C° 0 mm 2 mps 758 mmHg 56%
    05:00 +7°C° 0 mm 2 mps 758 mmHg 57%
    06:00 +8°C° 0 mm 3 mps 758 mmHg 53%
    07:00 +10°C° 0 mm 3 mps 759 mmHg 49%
    08:00 +12°C° 0 mm 4 mps 759 mmHg 45%
    09:00 +13°C° 0 mm 5 mps 759 mmHg 42%
    10:00 +15°C° 0 mm 5 mps 759 mmHg 39%
    11:00 +16°C° 0 mm 5 mps 759 mmHg 36%
    12:00 +17°C° 0 mm 5 mps 759 mmHg 35%
    13:00 +17°C° 0 mm 5 mps 759 mmHg 34%
    14:00 +19°C° 0 mm 5 mps 758 mmHg 33%
    15:00 +19°C° 0 mm 4 mps 758 mmHg 34%
    16:00 +18°C° 0 mm 4 mps 758 mmHg 36%
    17:00 +18°C° 0 mm 4 mps 757 mmHg 37%
    18:00 +16°C° 0 mm 3 mps 758 mmHg 43%
    19:00 +13°C° 0 mm 3 mps 758 mmHg 49%
    20:00 +12°C° 0 mm 2 mps 758 mmHg 55%
    21:00 +12°C° 0 mm 2 mps 758 mmHg 57%
    22:00 +11°C° 0 mm 1 mps 758 mmHg 59%
    23:00 +10°C° 0 mm 1 mps 758 mmHg 61%

    25 April, Thursday

    Time Temperature Precipitation Wind Pressure Humidity
    00:00 +10°C° 0 mm 1 mps 758 mmHg 62%
    01:00 +10°C° 0 mm 1 mps 758 mmHg 63%
    02:00 +9°C° 0 mm 1 mps 758 mmHg 64%
    03:00 +9°C° 0 mm 1 mps 758 mmHg 65%
    04:00 +9°C° 0 mm 1 mps 758 mmHg 65%
    05:00 +9°C° 0 mm 1 mps 758 mmHg 66%
    06:00 +10°C° 0 mm 2 mps 758 mmHg 61%
    07:00 +12°C° 0 mm 3 mps 758 mmHg 55%
    08:00 +14°C° 0 mm 3 mps 759 mmHg 50%
    09:00 +15°C° 0 mm 4 mps 759 mmHg 46%
    10:00 +16°C° 0 mm 5 mps 758 mmHg 42%
    11:00 +19°C° 0 mm 5 mps 758 mmHg 39%
    12:00 +19°C° 0 mm 5 mps 758 mmHg 38%
    13:00 +20°C° 0 mm 5 mps 758 mmHg 37%
    14:00 +20°C° 0 mm 5 mps 757 mmHg 37%
    15:00 +20°C° 0 mm 5 mps 757 mmHg 38%
    16:00 +19°C° 0 mm 5 mps 757 mmHg 39%
    17:00 +19°C° 0 mm 4 mps 756 mmHg 40%
    18:00 +17°C° 0 mm 4 mps 756 mmHg 45%
    19:00 +14°C° 0 mm 3 mps 756 mmHg 49%
    20:00 +12°C° 0 mm 3 mps 756 mmHg 54%
    21:00 +12°C° 0 mm 2 mps 756 mmHg 57%
    22:00 +10°C° 0 mm 2 mps 756 mmHg 59%
    23:00 +10°C° 0 mm 2 mps 756 mmHg 61%

    26 April, Friday

    Time Temperature Precipitation Wind Pressure Humidity
    00:00 +9°C° 0 mm 2 mps 756 mmHg 64%
    01:00 +10°C° 0 mm 1 mps 756 mmHg 67%
    02:00 +9°C° 0 mm 1 mps 756 mmHg 70%
    03:00 +9°C° 0 mm 1 mps 756 mmHg 70%
    04:00 +8°C° 0 mm 1 mps 756 mmHg 71%
    05:00 +7°C° 0 mm 0 mps 755 mmHg 72%
    06:00 +10°C° 0 mm 1 mps 755 mmHg 64%
    07:00 +12°C° 0 mm 1 mps 756 mmHg 56%
    08:00 +14°C° 0 mm 2 mps 756 mmHg 48%
    09:00 +16°C° 0 mm 2 mps 755 mmHg 45%
    10:00 +18°C° 0 mm 3 mps 755 mmHg 41%
    11:00 +19°C° 0 mm 4 mps 755 mmHg 37%
    12:00 +20°C° 0 mm 4 mps 755 mmHg 37%
    13:00 +21°C° 0 mm 4 mps 754 mmHg 36%
    14:00 +21°C° 0 mm 4 mps 754 mmHg 36%
    15:00 +21°C° 0 mm 4 mps 754 mmHg 38%
    16:00 +21°C° 0 mm 4 mps 753 mmHg 39%
    17:00 +20°C° 0 mm 4 mps 753 mmHg 41%
    18:00 +19°C° 0 mm 3 mps 753 mmHg 46%
    19:00 +17°C° 0 mm 3 mps 753 mmHg 51%
    20:00 +14°C° 0 mm 3 mps 753 mmHg 57%
    21:00 +14°C° 0 mm 2 mps 753 mmHg 58%
    22:00 +14°C° 0 mm 2 mps 753 mmHg 59%
    23:00 +13°C° 0 mm 1 mps 753 mmHg 61%

    27 April, Saturday

    Time Temperature Precipitation Wind Pressure Humidity
    00:00 +13°C° 0 mm 1 mps 752 mmHg 62%
    01:00 +12°C° 0 mm 1 mps 752 mmHg 64%
    02:00 +12°C° 0 mm 1 mps 752 mmHg 65%
    03:00 +12°C° 0 mm 1 mps 752 mmHg 66%
    04:00 +11°C° 0 mm 1 mps 752 mmHg 67%
    05:00 +11°C° 0 mm 1 mps 752 mmHg 68%
    06:00 +13°C° 0 mm 1 mps 752 mmHg 63%
    07:00 +15°C° 0 mm 2 mps 752 mmHg 58%
    08:00 +17°C° 0 mm 2 mps 752 mmHg 53%
    09:00 +18°C° 0 mm 3 mps 752 mmHg 50%
    10:00 +20°C° 0 mm 3 mps 752 mmHg 47%
    11:00 +21°C° 0 mm 4 mps 752 mmHg 44%
    12:00 +22°C° 0 mm 4 mps 751 mmHg 43%
    13:00 +22°C° 0 mm 4 mps 751 mmHg 41%
    14:00 +23°C° 0 mm 4 mps 751 mmHg 39%
    15:00 +22°C° 0 mm 5 mps 751 mmHg 41%
    16:00 +22°C° 0 mm 5 mps 750 mmHg 44%
    17:00 +21°C° 0 mm 5 mps 750 mmHg 46%
    18:00 +19°C° 0 mm 4 mps 750 mmHg 51%
    19:00 +18°C° 0 mm 3 mps 750 mmHg 57%
    20:00 +16°C° 0 mm 3 mps 750 mmHg 62%
    21:00 +15°C° 0 mm 2 mps 750 mmHg 64%
    22:00 +14°C° 0 mm 2 mps 750 mmHg 66%
    23:00 +14°C° 0 mm 1 mps 751 mmHg 68%
    Show more